• Join FlightAware (Why Join?)
  • Login
  • US Flag 
11:50PM EST


 

Airport Tracker/Info


-or-


 

Live Flight TrackerFlight Track Log ✈ RPA3250 ✈ 11-May-2014 ✈ KCLT - KIND

Flight Track Log - Related Links

Times and Time Zones

All times are in EDT time to prevent confusion due to time zone crossing. See the RPA3250 flight status page for this flight to view local times or setup timezone preferences in your user account.

Time Position Orientation Groundspeed Altitude Reporting Facility
EDT Latitude Longitude Course Direction KTS MPH feet Rate Location/Type
08:07AM 35.2289 -80.9572 318° Northwest 158 182 1,400  Level Atlanta Center
08:08AM 35.2583 -80.9611 354° North 170 196 2,400 1,837 Climbing Atlanta Center
08:09AM 35.3053 -81.0053 322° Northwest 244 281 4,400 1,965 Climbing Atlanta Center
08:10AM 35.4358 -80.9750 11° North 284 327 8,000 1,271 Climbing Atlanta Center
08:11AM 35.5433 -81.3105 318° Northwest  Level Estimated
08:11AM 35.5125 -80.9517 14° North 284 327 8,000  Level Atlanta Center
08:12AM 35.6256 -81.4013 318° Northwest  Level Estimated
08:12AM 35.5911 -80.9283 14° North 284 327 9,600  Level Atlanta Center
08:13AM 35.6739 -80.9019 15° North 291 335 11,600 2,000 Climbing Atlanta Center
08:14AM 35.7653 -80.8806 11° North 304 350 13,600 2,050 Climbing Atlanta Center
08:15AM 35.8589 -80.8694 North 326 375 15,700 1,850 Climbing Atlanta Center
08:16AM 35.9525 -80.8606 North 333 383 17,300 1,500 Climbing Atlanta Center
08:17AM 36.0472 -80.8903 346° North 333 383 18,700 1,550 Climbing Atlanta Center
08:18AM 36.1525 -80.9325 342° North 344 396 20,400 1,350 Climbing Atlanta Center
08:19AM 36.2492 -80.9672 344° North 350 403 21,400 850 Climbing Atlanta Center
08:20AM 36.3503 -81.0047 343° North 360 414 22,100 750 Climbing Atlanta Center
08:21AM 36.4450 -81.0397 343° North 367 422 22,900 450 Climbing Atlanta Center
08:22AM 36.5458 -81.0747 344° North 367 422 23,000 250 Climbing Atlanta Center
08:23AM 36.6469 -81.1150 342° North 367 422 23,400 950 Climbing Atlanta Center
08:24AM 36.7481 -81.1528 343° North 372 428 24,900 1,250 Climbing Atlanta Center
08:25AM 36.8344 -81.1886 342° North 372 428 25,900 1,200 Climbing Atlanta Center
08:28AM 37.0886 -81.2819 344° North 390 449 28,900 1,164 Climbing Indianapolis Center
08:29AM 37.1944 -81.3219 343° North 392 451 29,800 541 Climbing Indianapolis Center
08:30AM 37.3114 -81.3664 343° North 399 459 30,000 98 Climbing Indianapolis Center
08:31AM 37.4114 -81.4053 343° North 396 456 30,000  Level Indianapolis Center
08:32AM 37.5111 -81.4444 343° North 391 450 30,000  Level Indianapolis Center
08:33AM 37.6119 -81.4825 343° North 390 449 30,000  Level Indianapolis Center
08:34AM 37.7297 -81.5292 343° North 388 447 30,000  Level Indianapolis Center
08:35AM 37.8325 -81.5681 343° North 387 445 30,000  Level Indianapolis Center
08:36AM 37.9253 -81.6044 343° North 392 451 30,000  Level Indianapolis Center
08:37AM 38.0303 -81.6458 343° North 392 451 30,000 -49 Level Indianapolis Center
08:38AM 38.1564 -81.6950 343° North 392 451 29,900 -787 Descending Indianapolis Center
08:39AM 38.2611 -81.7383 342° North 392 451 28,400 -1,475 Descending Indianapolis Center
08:40AM 38.3514 -81.8122 327° Northwest 386 444 26,900 -1,180 Descending Indianapolis Center
08:41AM 38.4389 -81.8825 328° Northwest 374 430 26,000 -443 Descending Indianapolis Center
08:42AM 38.5244 -81.9544 327° Northwest 369 425 26,000  Level Indianapolis Center
08:43AM 38.6100 -82.0267 327° Northwest 367 422 26,000  Level Indianapolis Center
08:44AM 38.6972 -82.0992 327° Northwest 367 422 26,000  Level Indianapolis Center
08:45AM 38.7847 -82.1733 327° Northwest 369 425 26,000  Level Indianapolis Center
08:46AM 38.8725 -82.2469 327° Northwest 371 427 26,000  Level Indianapolis Center
08:47AM 38.9600 -82.3206 327° Northwest 372 428 26,000  Level Indianapolis Center
08:48AM 39.0478 -82.3944 327° Northwest 373 429 26,000 -590 Level Indianapolis Center
08:49AM 39.1339 -82.4683 326° Northwest 373 429 24,800 -984 Descending Indianapolis Center
08:50AM 39.2244 -82.5450 327° Northwest 370 426 24,000 -393 Descending Indianapolis Center
08:51AM 39.3094 -82.6192 326° Northwest 370 426 24,000 -148 Level Indianapolis Center
08:52AM 39.3631 -82.7233 304° West 361 415 23,700 -683 Descending Indianapolis Center
08:53AM 39.4025 -82.8378 294° West 352 405 22,600 -829 Descending Indianapolis Center
08:54AM 39.4417 -82.9519 294° West 352 405 22,000 -295 Descending Indianapolis Center
08:55AM 39.4800 -83.0644 294° West 346 398 22,000  Level Indianapolis Center
08:56AM 39.5175 -83.1769 293° West 344 396 22,000  Level Indianapolis Center
08:57AM 39.5553 -83.2908 293° West 344 396 22,000  Level Indianapolis Center
08:58AM 39.6017 -83.4286 294° West 344 396 22,000  Level Indianapolis Center
08:59AM 39.6406 -83.5447 294° West 344 396 22,000  Level Indianapolis Center
09:00AM 39.6789 -83.6608 293° West 344 396 22,000  Level Indianapolis Center
09:01AM 39.7167 -83.7744 293° West 344 396 22,000  Level Indianapolis Center
09:02AM 39.7542 -83.8878 293° West 342 394 22,000  Level Indianapolis Center
09:03AM 39.7914 -83.9986 294° West 338 389 22,000  Level Indianapolis Center
09:04AM 39.8272 -84.1083 293° West 334 384 22,000  Level Indianapolis Center
09:05AM 39.8622 -84.2161 293° West 329 379 22,000  Level Indianapolis Center
09:06AM 39.8969 -84.3222 293° West 324 373 22,000  Level Indianapolis Center
09:07AM 39.9314 -84.4306 293° West 323 372 22,000  Level Indianapolis Center
09:08AM 39.9667 -84.5400 293° West 325 374 22,000  Level Indianapolis Center
09:09AM 40.0017 -84.6475 293° West 325 374 22,000  Level Indianapolis Center
09:11AM 40.0356 -84.7558 292° West 325 374 22,000  Level Indianapolis Center
09:12AM 40.0778 -84.8858 293° West 324 373 22,000  Level Indianapolis Center
09:13AM 40.1078 -84.9822 292° West 325 374 22,000 -590 Level Indianapolis Center
09:14AM 40.1428 -85.0900 293° West 325 374 20,800 -1,756 Descending Indianapolis Center
09:15AM 40.1789 -85.2089 292° West 302 348 18,400 -2,146 Descending Indianapolis Center
09:16AM 40.2097 -85.3069 292° West 297 342 16,400 -1,902 Descending Indianapolis Center
09:17AM 40.2258 -85.4081 282° West 294 338 14,500 -1,707 Descending Indianapolis Center
09:18AM 40.1908 -85.5031 244° Southwest 291 335 12,900 -1,525 Descending Indianapolis Center
09:19AM 40.1478 -85.5833 235° Southwest 276 318 11,400 -1,561 Descending Indianapolis Center
09:20AM 40.1061 -85.6606 235° Southwest 266 306 9,700 -1,610 Descending Indianapolis Center
09:21AM 40.0647 -85.7339 234° Southwest 257 296 8,100 -1,561 Descending Indianapolis Center
09:22AM 40.0264 -85.8058 235° Southwest 248 285 6,500 -1,659 Descending Indianapolis Center
09:23AM 39.9881 -85.8772 235° Southwest 245 282 4,700 -1,230 Descending Indianapolis Center
09:24AM 39.9408 -85.9633 234° Southwest 245 282 4,000 -341 Descending Indianapolis Center
09:25AM 39.9014 -86.0353 234° Southwest 245 282 4,000  Level Indianapolis Center
09:26AM 39.8611 -86.0986 230° Southwest 233 268 4,000 -98 Level Indianapolis Center
09:27AM 39.8303 -86.1386 225° Southwest 189 217 3,800 -439 Descending Indianapolis Center
09:28AM 39.8047 -86.1714 225° Southwest 151 174 3,100 -689 Descending Indianapolis Center
09:29AM 39.7781 -86.2050 224° Southwest 138 159 2,400 -683 Descending Indianapolis Center
09:30AM 39.7511 -86.2408 226° Southwest 138 159 1,700 -732 Descending Indianapolis Center
09:31AM 39.7253 -86.2750 225° Southwest 133 153 900 -439 Descending Indianapolis Center
09:32AM 39.6958 -86.3106 223° Southwest 132 152 800 -97 Descending Indianapolis Center